Content
SEND FEEDBACK

United States of America Flag

NEW YORK - CENTRAL PARK, NEW YORK


Home > North America > United States > New York
Elevation: 14 feet     Latitude: 40 47N     Longitude: 073 58W

WEATHER
 
SELECT A DAY
Number of Records: 166,240;   Date Range: 11/1/95 - 3/22/16
 
SHARE

PRINT THIS DATA

[ ← Previous Day ]
WEATHER ALMANAC - MARCH 3, 2014
[ Next Day → ]
[ °C ]   °F
Weather ElementAverageHighLow
Temperature22 °F30 °F (1:51 am)18 °F (11:51 pm)
Dewpoint4.9 °F18 °F (3:51 am)-2.9 °F (11:51 pm)
Humidity49.4 %77 % (3:51 am)37 % (4:51 pm)
Barometer30.17 in30.33 in (10:51 pm)30.02 in (1:51 am)
Wind Speed7.2 mph13.8 mph (2:46 am)
Wind Gust23 mph (7:51 am)
Weather ElementAverage
Visibility7.9 mi
Wind DirectionENE (67.4 °)

Weather ElementTotal
Precipitation0.06 in
Heating Degree Days41 (Base 65)
Averaged from 27 records on March 3, 2014
WEATHER CONDITIONS BREAKOUT
WIND DIRECTION BREAKOUT
WEATHER BY HOUR - MARCH 3, 2014
[ °C ]   °F
Local TimeTemperatureDewpointHumidityBarometerVisibilityWind DirectionWind SpeedGust SpeedPrecipitationEventsConditions
1:51 AM30.0 °F12.9 °F49 %30.02 in10.0 miNNW (340°)6.9 mphOvercast
2:46 AM26.6 °F15.8 °F64 %30.05 in2.5 miNorth (350°)13.8 mph19.6 mph0.00 inSnowLight Snow
2:51 AM26.1 °F16.0 °F66 %30.03 in2.0 miNorth (350°)12.7 mph18.4 mph0.00 inSnowLight Snow
3:27 AM25.0 °F17.1 °F72 %30.05 in1.2 miNNE (30°)9.2 mph0.00 inSnowLight Snow
3:51 AM24.1 °F18.0 °F77 %30.04 in1.2 miNNE (20°)6.9 mph0.01 inSnowLight Snow
4:51 AM23.0 °F16.0 °F74 %30.07 in1.8 miNNE (20°)10.4 mph17.3 mph0.02 inSnowLight Snow
5:32 AM21.9 °F14.0 °F72 %30.10 in2.0 miNNE (20°)6.9 mph0.01 inSnowLight Snow
5:40 AM21.9 °F14.0 °F72 %30.10 in4.0 miVariable6.9 mph0.01 inSnowLight Snow
5:51 AM21.9 °F9.0 °F58 %30.09 in8.0 miNorth0.01 inOvercast
6:51 AM21.9 °F3.0 °F44 %30.12 in10.0 miNorth (10°)13.8 mph18.4 mphOvercast
7:51 AM21.0 °F1.9 °F44 %30.14 in10.0 miNNE (20°)8.1 mph23.0 mphOvercast
8:51 AM19.9 °F1.9 °F46 %30.16 in10.0 miNorthOvercast
9:51 AM21.0 °F1.9 °F44 %30.17 in10.0 miVariable6.9 mphOvercast
10:51 AM21.0 °F1.9 °F44 %30.18 in10.0 miVariable6.9 mphPartly Cloudy
11:51 AM19.9 °F-0.9 °F40 %30.18 in10.0 miWNW (300°)8.1 mphMostly Cloudy
12:51 PM19.9 °F-2.0 °F38 %30.18 in10.0 miVariable3.5 mphOvercast
1:51 PM21.0 °F-0.9 °F38 %30.17 in10.0 miNorthClear
2:51 PM21.0 °F-0.9 °F38 %30.19 in10.0 miVariable4.6 mphScattered Clouds
3:51 PM21.9 °F0.0 °F38 %30.20 in10.0 miVariable4.6 mphClear
4:51 PM21.9 °F-0.9 °F37 %30.22 in10.0 miVariable4.6 mphClear
5:51 PM21.9 °F0.0 °F38 %30.24 in10.0 miWNW (300°)6.9 mphClear
6:51 PM21.9 °F0.0 °F38 %30.26 in10.0 miVariable3.5 mphClear
7:51 PM21.0 °F0.0 °F40 %30.28 in10.0 miNNE (30°)9.2 mphClear
8:51 PM21.0 °F1.0 °F42 %30.30 in10.0 miNNE (30°)8.1 mphClear
9:51 PM19.9 °F-2.0 °F38 %30.31 in10.0 miVariable5.8 mphClear
10:51 PM19.0 °F-0.9 °F42 %30.33 in10.0 miCalmClear
11:51 PM18.0 °F-2.9 °F40 %30.33 in10.0 miVariable4.6 mphClear
Hourly data recorded from KNYC, located miles away from New York - Central Park, New York




STORIES FROM OUR PARTNERS